| time (UTC) | temp F | wind direction | speed knots | gust knots | rain 1hr in | rain 24hr in | rain mn in | humidity % | barometer mb |
| 20260508014116 | 62 | 180 | 2.6 | 3.5 | 0.00 | 0.00 | 0.00 | 63 | 1010.4 |
| 20260508013116 | 63 | 180 | 2.6 | 5.2 | 0.00 | 0.00 | 0.00 | 61 | 1010.3 |
| 20260508012116 | 63 | 225 | 4.3 | 6.1 | 0.00 | 0.00 | 0.00 | 60 | 1010.3 |
| 20260508011136 | 63 | 203 | 2.6 | 4.3 | 0.00 | 0.00 | 0.00 | 60 | 1010.2 |
| 20260508010116 | 63 | 225 | 2.6 | 4.3 | 0.00 | 0.00 | 0.00 | 60 | 1010.2 |
| 20260508005116 | 64 | 203 | 2.6 | 3.5 | 0.00 | 0.00 | 0.00 | 59 | 1010.3 |
| 20260508004116 | 65 | 180 | 2.6 | 3.5 | 0.00 | 0.00 | 0.00 | 57 | 1010.2 |
| 20260508003116 | 66 | 180 | 2.6 | 3.5 | 0.00 | 0.00 | 0.00 | 57 | 1010.4 |
| 20260508002138 | 67 | 203 | 1.7 | 2.6 | 0.00 | 0.00 | 0.00 | 54 | 1010.4 |
| 20260508001816 | 68 | 203 | 3.5 | 4.3 | 0.00 | 0.00 | 0.00 | 54 | 1010.4 |
| 20260508000816 | 69 | 225 | 2.6 | 5.2 | 0.00 | 0.00 | 0.00 | 52 | 1010.4 |
| 20260507235816 | 69 | 203 | 2.6 | 2.6 | 0.00 | 0.00 | 0.00 | 52 | 1010.3 |
| 20260507234816 | 70 | 225 | 4.3 | 6.1 | 0.00 | 0.00 | 0.00 | 50 | 1010.3 |
| 20260507233816 | 69 | 248 | 3.5 | 4.3 | 0.00 | 0.00 | 0.00 | 51 | 1010.4 |
| 20260507232816 | 70 | 248 | 5.2 | 8.7 | 0.00 | 0.00 | 0.00 | 50 | 1010.4 |
| 20260507231816 | 69 | 293 | 0.9 | 3.5 | 0.00 | 0.00 | 0.00 | 53 | 1010.6 |
| 20260507230817 | 69 | 225 | 3.5 | 7.0 | 0.00 | 0.00 | 0.00 | 53 | 1010.6 |
| 20260507225816 | 69 | 203 | 4.3 | 8.7 | 0.00 | 0.00 | 0.00 | 52 | 1010.6 |
| 20260507224816 | 69 | 203 | 5.2 | 7.8 | 0.00 | 0.00 | 0.00 | 53 | 1010.6 |
| 20260507223817 | 69 | 293 | 3.5 | 5.2 | 0.00 | 0.00 | 0.00 | 51 | 1010.7 |
| 20260507222817 | 69 | 293 | 3.5 | 7.0 | 0.00 | 0.00 | 0.00 | 52 | 1010.7 |
| 20260507221816 | 69 | 270 | 2.6 | 5.2 | 0.00 | 0.00 | 0.00 | 51 | 1010.6 |
| 20260507220816 | 69 | 225 | 3.5 | 7.0 | 0.00 | 0.00 | 0.00 | 53 | 1010.9 |
| 20260507215817 | 69 | 225 | 3.5 | 7.0 | 0.00 | 0.00 | 0.00 | 54 | 1011.0 |
| 20260507214817 | 69 | 225 | 4.3 | 7.8 | 0.00 | 0.00 | 0.00 | 54 | 1011.0 |
| 20260507213816 | 69 | 225 | 5.2 | 10.4 | 0.00 | 0.00 | 0.00 | 53 | 1011.3 |
| 20260507212816 | 68 | 225 | 2.6 | 7.0 | 0.00 | 0.00 | 0.00 | 56 | 1011.3 |
| 20260507211817 | 68 | 293 | 5.2 | 7.0 | 0.00 | 0.00 | 0.00 | 56 | 1011.5 |
| 20260507210817 | 68 | 248 | 4.3 | 6.1 | 0.00 | 0.00 | 0.00 | 56 | 1011.7 |
| 20260507205817 | 68 | 225 | 5.2 | 8.7 | 0.00 | 0.00 | 0.00 | 56 | 1011.9 |
| 20260507204817 | 67 | 248 | 4.3 | 9.6 | 0.00 | 0.00 | 0.00 | 55 | 1012.0 |
| 20260507203816 | 68 | 225 | 6.1 | 8.7 | 0.00 | 0.00 | 0.00 | 57 | 1012.2 |
| 20260507202816 | 67 | 270 | 6.1 | 9.6 | 0.00 | 0.00 | 0.00 | 58 | 1012.3 |
| 20260507201817 | 67 | 293 | 3.5 | 6.1 | 0.00 | 0.00 | 0.00 | 60 | 1012.5 |
| 20260507200817 | 66 | 270 | 3.5 | 7.0 | 0.00 | 0.00 | 0.00 | 57 | 1012.5 |
| 20260507195837 | 67 | 248 | 5.2 | 10.4 | 0.00 | 0.00 | 0.00 | 58 | 1012.6 |
| 20260507194817 | 66 | 270 | 5.2 | 9.6 | 0.00 | 0.00 | 0.00 | 60 | 1013.0 |
| 20260507193817 | 66 | 270 | 4.3 | 6.1 | 0.00 | 0.00 | 0.00 | 57 | 1013.1 |
| 20260507192817 | 66 | 248 | 7.0 | 13.9 | 0.00 | 0.00 | 0.00 | 59 | 1013.1 |
| 20260507191837 | 65 | 203 | 7.8 | 11.3 | 0.00 | 0.00 | 0.00 | 59 | 1013.3 |
| 20260507190817 | 65 | 225 | 5.2 | 10.4 | 0.00 | 0.00 | 0.00 | 60 | 1013.4 |
| 20260507185817 | 65 | 203 | 7.0 | 10.4 | 0.00 | 0.00 | 0.00 | 57 | 1013.7 |
| 20260507184817 | 64 | 248 | 4.3 | 7.0 | 0.00 | 0.00 | 0.00 | 58 | 1013.7 |
| 20260507183837 | 65 | 293 | 2.6 | 5.2 | 0.00 | 0.00 | 0.00 | 61 | 1013.9 |
| 20260507182817 | 64 | 225 | 6.1 | 10.4 | 0.00 | 0.00 | 0.00 | 59 | 1014.0 |
| 20260507181837 | 64 | 270 | 3.5 | 4.3 | 0.00 | 0.00 | 0.00 | 63 | 1014.2 |
| 20260507180837 | 64 | 270 | 8.7 | 13.9 | 0.00 | 0.00 | 0.00 | 60 | 1014.2 |
| 20260507175904 | 63 | 0.0 | 0.0 | 0.00 | 0.00 | 0.00 | 61 | 1014.4 | |
| 20260507175417 | 64 | 225 | 3.5 | 5.2 | 0.00 | 0.00 | 0.00 | 59 | 1014.4 |
| 20260507174417 | 63 | 270 | 5.2 | 7.0 | 0.00 | 0.00 | 0.00 | 60 | 1014.3 |
| 20260507173417 | 63 | 293 | 4.3 | 8.7 | 0.00 | 0.00 | 0.00 | 61 | 1014.5 |
| 20260507172417 | 62 | 270 | 4.3 | 8.7 | 0.00 | 0.00 | 0.00 | 61 | 1014.7 |
| 20260507171417 | 62 | 225 | 5.2 | 9.6 | 0.00 | 0.00 | 0.00 | 60 | 1014.9 |
| 20260507170417 | 61 | 270 | 4.3 | 7.0 | 0.00 | 0.00 | 0.00 | 62 | 1015.0 |
| 20260507165417 | 62 | 293 | 7.0 | 11.3 | 0.00 | 0.00 | 0.00 | 65 | 1015.2 |
| 20260507164417 | 61 | 248 | 4.3 | 10.4 | 0.00 | 0.00 | 0.00 | 63 | 1015.2 |
| 20260507163417 | 61 | 293 | 3.5 | 6.1 | 0.00 | 0.00 | 0.00 | 62 | 1015.3 |
| 20260507162437 | 61 | 158 | 2.6 | 6.1 | 0.00 | 0.00 | 0.00 | 62 | 1015.3 |
| 20260507161417 | 62 | 180 | 5.2 | 7.8 | 0.00 | 0.00 | 0.00 | 62 | 1015.6 |
| 20260507160417 | 62 | 293 | 6.1 | 9.6 | 0.00 | 0.00 | 0.00 | 60 | 1015.5 |
| 20260507155558 | 62 | 270 | 1.7 | 2.6 | 0.00 | 0.00 | 0.00 | 64 | 1015.7 |
| 20260507154817 | 61 | 248 | 3.5 | 5.2 | 0.00 | 0.00 | 0.00 | 63 | 1015.7 |
| 20260507153817 | 61 | 225 | 3.5 | 7.8 | 0.00 | 0.00 | 0.00 | 65 | 1015.8 |
| 20260507152817 | 60 | 293 | 3.5 | 7.8 | 0.00 | 0.00 | 0.00 | 67 | 1015.8 |
| 20260507151817 | 60 | 270 | 3.5 | 7.8 | 0.00 | 0.00 | 0.00 | 65 | 1016.0 |
| 20260507150817 | 59 | 293 | 2.6 | 6.1 | 0.00 | 0.00 | 0.00 | 68 | 1016.0 |
| 20260507145857 | 59 | 225 | 5.2 | 8.7 | 0.00 | 0.00 | 0.00 | 68 | 1016.1 |
| 20260507144817 | 59 | 225 | 6.1 | 13.9 | 0.00 | 0.00 | 0.00 | 66 | 1016.2 |
| 20260507143817 | 58 | 293 | 2.6 | 7.0 | 0.00 | 0.00 | 0.00 | 69 | 1016.2 |
| 20260507142817 | 58 | 293 | 2.6 | 5.2 | 0.00 | 0.00 | 0.00 | 70 | 1016.2 |
| 20260507141817 | 58 | 270 | 3.5 | 5.2 | 0.00 | 0.00 | 0.00 | 70 | 1016.2 |
| 20260507140817 | 57 | 270 | 2.6 | 5.2 | 0.00 | 0.00 | 0.00 | 70 | 1016.4 |
| 20260507135837 | 57 | 225 | 0.9 | 1.7 | 0.00 | 0.00 | 0.00 | 70 | 1016.4 |
| 20260507134815 | 56 | 270 | 0.9 | 2.6 | 0.00 | 0.00 | 0.00 | 72 | 1016.5 |
| 20260507133835 | 56 | 225 | 1.7 | 3.5 | 0.00 | 0.00 | 0.00 | 72 | 1016.4 |
| 20260507132815 | 55 | 203 | 0.9 | 2.6 | 0.00 | 0.00 | 0.00 | 73 | 1016.5 |
| 20260507131815 | 54 | 203 | 1.7 | 3.5 | 0.00 | 0.00 | 0.00 | 73 | 1016.7 |
| 20260507130815 | 53 | 0.0 | 3.5 | 0.00 | 0.00 | 0.00 | 75 | 1016.8 | |
| 20260507125835 | 52 | 0.0 | 0.9 | 0.00 | 0.00 | 0.00 | 78 | 1017.0 | |
| 20260507124815 | 51 | 0.0 | 0.9 | 0.00 | 0.00 | 0.00 | 79 | 1016.9 | |
| 20260507123835 | 50 | 180 | 0.9 | 0.9 | 0.00 | 0.00 | 0.00 | 79 | 1016.8 |
| 20260507122815 | 49 | 0.0 | 0.0 | 0.00 | 0.00 | 0.00 | 85 | 1016.8 | |
| 20260507121815 | 48 | 0.0 | 0.0 | 0.00 | 0.00 | 0.00 | 90 | 1016.8 | |
| 20260507120815 | 45 | 0.0 | 0.0 | 0.00 | 0.00 | 0.00 | 94 | 1016.6 | |
| 20260507115815 | 42 | 0.0 | 0.0 | 0.00 | 0.00 | 0.00 | 93 | 1016.5 | |
| 20260507114815 | 39 | 0.0 | 0.0 | 0.00 | 0.00 | 0.00 | 92 | 1016.4 | |
| 20260507113815 | 38 | 0.0 | 0.0 | 0.00 | 0.00 | 0.00 | 92 | 1016.2 | |
| 20260507112815 | 37 | 0.0 | 0.0 | 0.00 | 0.00 | 0.00 | 91 | 1016.1 | |
| 20260507111815 | 36 | 0.0 | 0.0 | 0.00 | 0.00 | 0.00 | 90 | 1016.1 | |
| 20260507110815 | 37 | 0.0 | 0.0 | 0.00 | 0.00 | 0.00 | 89 | 1016.1 | |
| 20260507105835 | 37 | 0.0 | 0.0 | 0.00 | 0.00 | 0.00 | 90 | 1016.0 | |
| 20260507104816 | 37 | 0.0 | 0.0 | 0.00 | 0.00 | 0.00 | 89 | 1016.1 | |
| 20260507103815 | 37 | 0.0 | 0.0 | 0.00 | 0.00 | 0.00 | 90 | 1016.0 | |
| 20260507102815 | 37 | 0.0 | 0.0 | 0.00 | 0.00 | 0.00 | 90 | 1016.0 | |
| 20260507101816 | 37 | 0.0 | 0.0 | 0.00 | 0.00 | 0.00 | 90 | 1016.1 | |
| 20260507100816 | 38 | 0.0 | 0.0 | 0.00 | 0.00 | 0.00 | 89 | 1016.1 | |
| 20260507095816 | 37 | 0.0 | 0.0 | 0.00 | 0.00 | 0.00 | 89 | 1016.1 | |
| 20260507094815 | 37 | 0.0 | 0.0 | 0.00 | 0.00 | 0.00 | 87 | 1016.2 | |
| 20260507093816 | 38 | 0.0 | 0.0 | 0.00 | 0.00 | 0.00 | 87 | 1016.3 | |
| 20260507092815 | 38 | 0.0 | 0.0 | 0.00 | 0.00 | 0.00 | 87 | 1016.3 | |
| 20260507091815 | 39 | 0.0 | 0.0 | 0.00 | 0.00 | 0.00 | 86 | 1016.3 | |
| 20260507090816 | 39 | 0.0 | 0.0 | 0.00 | 0.00 | 0.00 | 86 | 1016.3 | |
| 20260507085816 | 40 | 0.0 | 0.0 | 0.00 | 0.00 | 0.00 | 88 | 1016.4 | |
| 20260507084816 | 39 | 0.0 | 0.0 | 0.00 | 0.00 | 0.00 | 89 | 1016.3 | |
| 20260507083816 | 39 | 0.0 | 0.0 | 0.00 | 0.00 | 0.00 | 87 | 1016.3 | |
| 20260507082846 | 39 | 0.0 | 0.0 | 0.00 | 0.00 | 0.00 | 86 | 1016.4 | |
| 20260507082516 | 39 | 0.0 | 0.0 | 0.00 | 0.00 | 0.00 | 86 | 1016.4 | |
| 20260507081516 | 40 | 0.0 | 0.0 | 0.00 | 0.01 | 0.00 | 87 | 1016.3 | |
| 20260507080516 | 40 | 0.0 | 0.0 | 0.00 | 0.01 | 0.00 | 86 | 1016.3 | |
| 20260507075516 | 40 | 0.0 | 0.0 | 0.00 | 0.01 | 0.00 | 82 | 1016.3 | |
| 20260507074516 | 41 | 0.0 | 0.0 | 0.00 | 0.01 | 0.00 | 82 | 1016.3 | |
| 20260507073516 | 42 | 0.0 | 0.0 | 0.00 | 0.01 | 0.00 | 82 | 1016.6 | |
| 20260507072516 | 43 | 0.0 | 0.0 | 0.00 | 0.01 | 0.00 | 83 | 1016.7 | |
| 20260507071516 | 42 | 0.0 | 0.0 | 0.00 | 0.01 | 0.00 | 85 | 1016.8 | |
| 20260507070516 | 42 | 0.0 | 0.0 | 0.00 | 0.01 | 0.00 | 84 | 1016.7 | |
| 20260507065516 | 42 | 0.0 | 0.0 | 0.00 | 0.01 | 0.00 | 84 | 1016.8 | |
| 20260507064516 | 42 | 0.0 | 0.0 | 0.00 | 0.02 | 0.00 | 83 | 1017.0 | |
| 20260507063516 | 43 | 0.0 | 0.0 | 0.00 | 0.02 | 0.00 | 84 | 1017.0 | |
| 20260507062516 | 42 | 0.0 | 0.0 | 0.00 | 0.02 | 0.00 | 86 | 1017.0 | |
| 20260507061516 | 42 | 0.0 | 0.0 | 0.00 | 0.02 | 0.00 | 85 | 1016.9 | |
| 20260507060516 | 42 | 0.0 | 0.0 | 0.00 | 0.02 | 0.00 | 86 | 1016.9 | |
| 20260507055536 | 41 | 0.0 | 0.0 | 0.00 | 0.02 | 0.00 | 88 | 1017.0 | |
| 20260507054612 | 39 | 0.0 | 0.0 | 0.00 | 0.02 | 0.00 | 87 | 1016.9 | |
| 20260507054416 | 39 | 0.0 | 0.0 | 0.00 | 0.02 | 0.00 | 85 | 1016.9 | |
| 20260507053416 | 39 | 0.0 | 0.0 | 0.00 | 0.02 | 0.00 | 84 | 1017.0 | |
| 20260507052416 | 40 | 0.0 | 0.0 | 0.00 | 0.02 | 0.00 | 84 | 1016.9 | |
| 20260507051416 | 41 | 0.0 | 0.0 | 0.00 | 0.02 | 0.00 | 85 | 1017.1 | |
| 20260507050436 | 41 | 0.0 | 0.0 | 0.00 | 0.02 | 0.00 | 86 | 1017.0 | |
| 20260507045417 | 41 | 0.0 | 0.0 | 0.00 | 0.02 | 0.02 | 86 | 1017.0 | |
| 20260507044417 | 41 | 0.0 | 0.0 | 0.00 | 0.02 | 0.02 | 88 | 1017.0 | |
| 20260507043437 | 41 | 0.0 | 0.0 | 0.00 | 0.03 | 0.02 | 89 | 1016.9 | |
| 20260507042417 | 40 | 0.0 | 0.0 | 0.00 | 0.03 | 0.02 | 88 | 1017.0 | |
| 20260507041417 | 41 | 0.0 | 0.0 | 0.00 | 0.03 | 0.02 | 88 | 1017.3 | |
| 20260507040457 | 40 | 0.0 | 0.0 | 0.00 | 0.03 | 0.02 | 87 | 1017.2 | |
| 20260507035417 | 40 | 0.0 | 0.0 | 0.00 | 0.03 | 0.02 | 84 | 1017.2 | |
| 20260507034432 | 41 | 0.0 | 0.0 | 0.00 | 0.03 | 0.02 | 85 | 1017.1 | |
| 20260507033617 | 41 | 0.0 | 0.0 | 0.00 | 0.03 | 0.02 | 85 | 1017.1 | |
| 20260507032617 | 41 | 0.0 | 0.0 | 0.00 | 0.03 | 0.02 | 83 | 1017.1 | |
| 20260507031617 | 41 | 0.0 | 0.0 | 0.00 | 0.03 | 0.02 | 81 | 1017.1 | |
| 20260507030617 | 41 | 0.0 | 0.0 | 0.00 | 0.03 | 0.02 | 78 | 1017.1 | |
| 20260507025637 | 42 | 0.0 | 0.0 | 0.00 | 0.03 | 0.02 | 78 | 1017.0 | |
| 20260507024617 | 43 | 0.0 | 0.0 | 0.00 | 0.03 | 0.02 | 76 | 1017.0 | |
| 20260507023617 | 44 | 0.0 | 0.0 | 0.00 | 0.03 | 0.02 | 76 | 1016.9 | |
| 20260507022617 | 45 | 0.0 | 0.0 | 0.00 | 0.03 | 0.02 | 76 | 1016.9 | |
| 20260507021617 | 46 | 0.0 | 0.0 | 0.00 | 0.03 | 0.02 | 75 | 1016.9 | |
| 20260507020617 | 46 | 0.0 | 0.0 | 0.00 | 0.03 | 0.02 | 70 | 1016.8 | |
| 20260507015617 | 47 | 0.0 | 0.0 | 0.00 | 0.03 | 0.02 | 68 | 1016.7 |